Location: Assche-ter-Heiden
(50.9174°N, 4.1574°E)
Time: 06:00:18
(UTC+00:00)

STARLINK-65 - Pass Details

Date: 20 January 2020
Orbit: 528 x 531 km, 53.0° (Epoch: 23 February)

Event Time Altitude Azimuth Distance (km) Brightness Sun altitude
Exits shadow 05:22:07 - 197° (SSW) 2,062 6.4 -20.5°
Reaches altitude 10° 05:23:01 10° 190° (S) 1,765 6.2 -20.4°
Drops below altitude 10° 05:29:17 10° 87° (E) 1,773 7.4 -19.4°
Enters shadow 06:28:07 -66° 245° (WSW) 12,196 10.3 -10.4°
Maximum altitude 07:04:48 77° 158° (SSE) 546 3.7 -5.1°
